• In United Kingdom
  • List of Countries
  • For 7 days
  • Water Temperature
  • Satellite Maps
  • Weather Map
  • Weather Widgets
  • user-avatar
    Login

    Hourly Weather Chimoio

    Today, 18 January, Thursday

    Time Temperature Precipitation Wind Pressure Humidity
    00:00 +19°C° 0.1 mm 0 mps 702 mmHg 98%
    01:00 +19°C° 0.1 mm 0 mps 701 mmHg 97%
    02:00 +21°C° 0.1 mm 1 mps 701 mmHg 97%
    03:00 +21°C° 0.1 mm 1 mps 701 mmHg 98%
    04:00 +21°C° 0.1 mm 1 mps 701 mmHg 98%
    05:00 +20°C° 0.1 mm 1 mps 701 mmHg 98%
    06:00 +22°C° 0.1 mm 1 mps 701 mmHg 93%
    07:00 +23°C° 0.1 mm 1 mps 702 mmHg 88%
    08:00 +24°C° 0.1 mm 2 mps 702 mmHg 83%
    09:00 +26°C° 0.1 mm 2 mps 702 mmHg 72%
    10:00 +28°C° 0.1 mm 2 mps 702 mmHg 62%
    11:00 +30°C° 0.1 mm 3 mps 702 mmHg 51%
    12:00 +30°C° 0.1 mm 3 mps 702 mmHg 49%
    13:00 +30°C° 0.1 mm 3 mps 701 mmHg 48%
    14:00 +32°C° 0.1 mm 4 mps 701 mmHg 47%
    15:00 +30°C° 0.1 mm 4 mps 701 mmHg 52%
    16:00 +29°C° 0.1 mm 3 mps 700 mmHg 56%
    17:00 +28°C° 0.1 mm 3 mps 700 mmHg 61%
    18:00 +26°C° 0.1 mm 3 mps 700 mmHg 71%
    19:00 +24°C° 0.1 mm 2 mps 700 mmHg 80%
    20:00 +21°C° 0.1 mm 2 mps 700 mmHg 90%
    21:00 +22°C° 0.1 mm 1 mps 701 mmHg 92%
    22:00 +21°C° 0.1 mm 1 mps 701 mmHg 94%
    23:00 +21°C° 0.1 mm 1 mps 702 mmHg 96%

    Tomorrow, 19 January, Friday

    Time Temperature Precipitation Wind Pressure Humidity
    00:00 +21°C° 0.2 mm 1 mps 701 mmHg 96%
    01:00 +21°C° 0.2 mm 1 mps 701 mmHg 96%
    02:00 +21°C° 0.2 mm 1 mps 701 mmHg 96%
    03:00 +20°C° 0 mm 1 mps 701 mmHg 96%
    04:00 +20°C° 0 mm 1 mps 700 mmHg 97%
    05:00 +19°C° 0 mm 1 mps 700 mmHg 97%
    06:00 +21°C° 0 mm 1 mps 701 mmHg 92%
    07:00 +22°C° 0 mm 1 mps 701 mmHg 86%
    08:00 +24°C° 0 mm 1 mps 702 mmHg 80%
    09:00 +25°C° 0 mm 1 mps 701 mmHg 71%
    10:00 +27°C° 0 mm 2 mps 701 mmHg 62%
    11:00 +28°C° 0 mm 2 mps 701 mmHg 53%
    12:00 +29°C° 0 mm 2 mps 701 mmHg 49%
    13:00 +30°C° 0 mm 3 mps 700 mmHg 44%
    14:00 +31°C° 0 mm 3 mps 700 mmHg 40%
    15:00 +30°C° 0 mm 3 mps 699 mmHg 43%
    16:00 +29°C° 0 mm 2 mps 699 mmHg 46%
    17:00 +29°C° 0 mm 2 mps 698 mmHg 49%
    18:00 +26°C° 0 mm 2 mps 699 mmHg 58%
    19:00 +24°C° 0 mm 1 mps 699 mmHg 67%
    20:00 +22°C° 0 mm 1 mps 700 mmHg 76%
    21:00 +21°C° 0 mm 1 mps 700 mmHg 81%
    22:00 +19°C° 0 mm 0 mps 700 mmHg 86%
    23:00 +18°C° 0 mm 0 mps 701 mmHg 91%

    Day after tomorrow, 20 January, Saturday

    Time Temperature Precipitation Wind Pressure Humidity
    00:00 +18°C° 0 mm 0 mps 700 mmHg 92%
    01:00 +18°C° 0 mm 0 mps 700 mmHg 94%
    02:00 +19°C° 0 mm 1 mps 699 mmHg 95%
    03:00 +19°C° 0 mm 1 mps 699 mmHg 95%
    04:00 +19°C° 0 mm 1 mps 699 mmHg 96%
    05:00 +19°C° 0 mm 1 mps 700 mmHg 96%
    06:00 +21°C° 0 mm 1 mps 700 mmHg 87%
    07:00 +22°C° 0 mm 0 mps 701 mmHg 77%
    08:00 +24°C° 0 mm 0 mps 702 mmHg 67%
    09:00 +28°C° 0 mm 1 mps 702 mmHg 59%
    10:00 +31°C° 0 mm 1 mps 702 mmHg 52%
    11:00 +33°C° 0 mm 1 mps 702 mmHg 44%
    12:00 +33°C° 0 mm 1 mps 701 mmHg 43%
    13:00 +34°C° 0 mm 2 mps 700 mmHg 41%
    14:00 +34°C° 0 mm 2 mps 699 mmHg 40%
    15:00 +32°C° 0 mm 2 mps 699 mmHg 43%
    16:00 +31°C° 0 mm 2 mps 699 mmHg 47%
    17:00 +30°C° 0 mm 2 mps 698 mmHg 51%
    18:00 +28°C° 0 mm 2 mps 699 mmHg 59%
    19:00 +26°C° 0 mm 2 mps 699 mmHg 67%
    20:00 +24°C° 0 mm 1 mps 700 mmHg 74%
    21:00 +23°C° 0 mm 1 mps 700 mmHg 79%
    22:00 +20°C° 0 mm 0 mps 700 mmHg 84%
    23:00 +19°C° 0 mm 0 mps 701 mmHg 89%

    21 January, Sunday

    Time Temperature Precipitation Wind Pressure Humidity
    00:00 +19°C° 0 mm 0 mps 700 mmHg 90%
    01:00 +18°C° 0 mm 0 mps 700 mmHg 92%
    02:00 +18°C° 0 mm 0 mps 700 mmHg 94%
    03:00 +18°C° 0 mm 0 mps 700 mmHg 95%
    04:00 +18°C° 0 mm 0 mps 700 mmHg 95%
    05:00 +17°C° 0 mm 0 mps 700 mmHg 96%
    06:00 +20°C° 0 mm 0 mps 701 mmHg 87%
    07:00 +22°C° 0 mm 0 mps 702 mmHg 78%
    08:00 +24°C° 0 mm 0 mps 702 mmHg 69%
    09:00 +28°C° 0 mm 1 mps 702 mmHg 64%
    10:00 +29°C° 0 mm 1 mps 702 mmHg 59%
    11:00 +30°C° 0 mm 2 mps 702 mmHg 54%
    12:00 +30°C° 0 mm 2 mps 701 mmHg 52%
    13:00 +31°C° 0 mm 3 mps 700 mmHg 49%
    14:00 +31°C° 0 mm 3 mps 699 mmHg 47%
    15:00 +30°C° 0.2 mm 3 mps 699 mmHg 53%
    16:00 +29°C° 0.2 mm 3 mps 699 mmHg 58%
    17:00 +28°C° 0.2 mm 2 mps 699 mmHg 63%
    18:00 +26°C° 0.1 mm 2 mps 699 mmHg 70%
    19:00 +24°C° 0.1 mm 2 mps 700 mmHg 76%
    20:00 +23°C° 0.1 mm 1 mps 700 mmHg 82%
    21:00 +22°C° 0 mm 1 mps 700 mmHg 85%
    22:00 +21°C° 0 mm 1 mps 701 mmHg 87%
    23:00 +21°C° 0 mm 1 mps 701 mmHg 90%

    22 January, Monday

    Time Temperature Precipitation Wind Pressure Humidity
    00:00 +20°C° 0 mm 1 mps 701 mmHg 90%
    01:00 +20°C° 0 mm 1 mps 700 mmHg 91%
    02:00 +20°C° 0 mm 1 mps 700 mmHg 91%
    03:00 +20°C° 0 mm 1 mps 700 mmHg 91%
    04:00 +20°C° 0 mm 1 mps 700 mmHg 91%
    05:00 +20°C° 0 mm 1 mps 700 mmHg 91%
    06:00 +21°C° 0 mm 1 mps 701 mmHg 84%
    07:00 +23°C° 0 mm 1 mps 701 mmHg 77%
    08:00 +25°C° 0 mm 1 mps 702 mmHg 70%
    09:00 +27°C° 0 mm 1 mps 702 mmHg 64%
    10:00 +28°C° 0 mm 1 mps 701 mmHg 58%
    11:00 +30°C° 0 mm 2 mps 701 mmHg 52%
    12:00 +30°C° 0 mm 2 mps 700 mmHg 50%
    13:00 +31°C° 0 mm 2 mps 700 mmHg 48%
    14:00 +31°C° 0 mm 3 mps 699 mmHg 46%
    15:00 +30°C° 0.1 mm 3 mps 699 mmHg 52%
    16:00 +29°C° 0.1 mm 3 mps 699 mmHg 59%
    17:00 +27°C° 0.1 mm 4 mps 698 mmHg 66%
    18:00 +26°C° 0 mm 3 mps 699 mmHg 74%
    19:00 +24°C° 0 mm 2 mps 699 mmHg 83%
    20:00 +21°C° 0 mm 2 mps 700 mmHg 91%
    21:00 +22°C° 0.2 mm 1 mps 700 mmHg 92%
    22:00 +22°C° 0.2 mm 1 mps 700 mmHg 94%
    23:00 +21°C° 0.2 mm 1 mps 701 mmHg 96%

    23 January, Tuesday

    Time Temperature Precipitation Wind Pressure Humidity
    00:00 +21°C° 0.1 mm 1 mps 700 mmHg 96%
    01:00 +19°C° 0.1 mm 0 mps 700 mmHg 96%
    02:00 +19°C° 0.1 mm 0 mps 699 mmHg 97%
    03:00 +18°C° 0 mm 0 mps 699 mmHg 97%
    04:00 +18°C° 0 mm 0 mps 700 mmHg 97%
    05:00 +18°C° 0 mm 0 mps 700 mmHg 98%
    06:00 +19°C° 0 mm 0 mps 700 mmHg 91%
    07:00 +23°C° 0 mm 1 mps 701 mmHg 85%
    08:00 +24°C° 0 mm 1 mps 701 mmHg 79%
    09:00 +26°C° 0.1 mm 1 mps 701 mmHg 73%
    10:00 +27°C° 0.1 mm 1 mps 701 mmHg 66%
    11:00 +28°C° 0.1 mm 2 mps 700 mmHg 60%
    12:00 +29°C° 0 mm 2 mps 700 mmHg 56%
    13:00 +30°C° 0 mm 2 mps 699 mmHg 52%
    14:00 +31°C° 0 mm 2 mps 699 mmHg 48%
    15:00 +30°C° 0 mm 2 mps 698 mmHg 50%
    16:00 +30°C° 0 mm 2 mps 698 mmHg 51%
    17:00 +29°C° 0 mm 2 mps 698 mmHg 53%
    18:00 +27°C° 0 mm 2 mps 698 mmHg 60%
    19:00 +25°C° 0 mm 2 mps 698 mmHg 67%
    20:00 +23°C° 0 mm 2 mps 699 mmHg 74%
    21:00 +22°C° 0 mm 1 mps 699 mmHg 78%
    22:00 +21°C° 0 mm 1 mps 699 mmHg 83%
    23:00 +18°C° 0 mm 0 mps 700 mmHg 88%
    Show more